User: anonymous   Login
Location: Space Photons Observatory
(33.2428°N, 111.5467°W)
Time: 04:47:10
(UTC-07:00)
Language:

RESURS DK-1 - Orbit

View from above orbital plane
View from above orbital plane
View from above satellite
View from above satellite

Ground track
Ground track

The orbit data is extracted from the following two-line orbital elements,

1 29228U 06021A   15185.09373477 -.00000853  00000-0 -58247-4 0  9990
2 29228 069.9375 114.1122 0005247 318.6068 165.2951 15.01526622500886
Epoch (UTC): 04 July 2015 02:14:58
Eccentricity: 0.0005247
inclination: 69.9375°
perigee height: 558 km
apogee height: 566 km
right ascension of ascending node: 114.1122°
argument of perigee: 318.6068°
revolutions per day: 15.01526622
mean anomaly at epoch: 165.2951°
orbit number at epoch: 50088

The dashed part of the orbit path shows where the satellite is in the earth's shadow,  

DLR